Time,TemperatureF,DewpointF,PressureIn,WindDirection,WindDirectionDegrees,WindSpeedMPH,WindSpeedGustMPH,Humidity,HourlyPrecipIn,Conditions,Clouds,dailyrainin,SoftwareType,DateUTC
2013-07-12 00:01:00,55.0,49.0,-100.00,SW,227,7.0,9.0,79,0.00,,,-99.99,,2013-07-12 08:01:00,
2013-07-12 00:11:00,55.0,49.0,-100.00,SW,227,7.0,9.0,79,0.00,,,-99.99,,2013-07-12 08:11:00,
2013-07-12 00:21:00,55.0,49.0,-100.00,SW,227,7.0,9.0,79,0.00,,,-99.99,,2013-07-12 08:21:00,
2013-07-12 00:30:00,55.0,50.0,-100.00,NW,320,5.0,6.0,83,0.00,,,-99.99,,2013-07-12 08:30:00,
2013-07-12 00:53:00,55.0,50.0,-100.00,NW,320,5.0,6.0,83,0.00,,,-99.99,,2013-07-12 08:53:00,
2013-07-12 01:02:00,55.0,50.0,-100.00,NW,320,5.0,6.0,83,0.00,,,-99.99,,2013-07-12 09:02:00,
2013-07-12 01:12:00,55.0,50.0,-100.00,NW,320,5.0,6.0,83,0.00,,,-99.99,,2013-07-12 09:12:00,
2013-07-12 01:22:00,55.0,50.0,-100.00,NW,320,5.0,6.0,83,0.00,,,-99.99,,2013-07-12 09:22:00,
2013-07-12 01:30:00,54.0,50.0,-100.00,NNE,15,1.0,2.0,88,0.00,,,-99.99,,2013-07-12 09:30:00,
2013-07-12 01:52:00,54.0,50.0,-100.00,NNE,15,1.0,2.0,88,0.00,,,-99.99,,2013-07-12 09:52:00,
2013-07-12 02:01:00,54.0,50.0,-100.00,NNE,15,1.0,2.0,88,0.00,,,-99.99,,2013-07-12 10:01:00,
2013-07-12 02:11:00,54.0,50.0,-100.00,NNE,15,1.0,2.0,88,0.00,,,-99.99,,2013-07-12 10:11:00,
2013-07-12 02:22:00,54.0,50.0,-100.00,NNE,15,1.0,2.0,88,0.00,,,-99.99,,2013-07-12 10:22:00,
2013-07-12 02:30:00,52.0,50.0,-100.00,East,87,3.0,5.0,90,0.00,,,-99.99,,2013-07-12 10:30:00,
2013-07-12 03:02:00,52.0,50.0,-100.00,East,87,3.0,5.0,90,0.00,,,-99.99,,2013-07-12 11:02:00,
2013-07-12 03:11:00,52.0,50.0,-100.00,East,87,3.0,5.0,90,0.00,,,-99.99,,2013-07-12 11:11:00,
2013-07-12 03:22:00,52.0,50.0,-100.00,East,87,3.0,5.0,90,0.00,,,-99.99,,2013-07-12 11:22:00,
2013-07-12 03:30:00,53.0,50.0,-100.00,East,91,5.0,6.0,88,0.00,,,-99.99,,2013-07-12 11:30:00,
2013-07-12 03:53:00,53.0,50.0,-100.00,East,91,5.0,6.0,88,0.00,,,-99.99,,2013-07-12 11:53:00,
2013-07-12 04:01:00,53.0,50.0,-100.00,East,91,5.0,6.0,88,0.00,,,-99.99,,2013-07-12 12:01:00,
2013-07-12 04:11:00,53.0,50.0,-100.00,East,91,5.0,6.0,88,0.00,,,-99.99,,2013-07-12 12:11:00,
2013-07-12 04:22:00,53.0,50.0,-100.00,East,91,5.0,6.0,88,0.00,,,-99.99,,2013-07-12 12:22:00,
2013-07-12 04:30:00,52.0,50.0,-100.00,ENE,74,3.0,4.0,94,0.00,,,-99.99,,2013-07-12 12:30:00,
2013-07-12 04:52:00,52.0,50.0,-100.00,ENE,74,3.0,4.0,94,0.00,,,-99.99,,2013-07-12 12:52:00,
2013-07-12 05:01:00,52.0,50.0,-100.00,ENE,74,3.0,4.0,94,0.00,,,-99.99,,2013-07-12 13:01:00,
2013-07-12 05:12:00,52.0,50.0,-100.00,ENE,74,3.0,4.0,94,0.00,,,-99.99,,2013-07-12 13:12:00,
2013-07-12 05:22:00,52.0,50.0,-100.00,ENE,74,3.0,4.0,94,0.00,,,-99.99,,2013-07-12 13:22:00,
2013-07-12 05:30:00,52.0,50.0,-100.00,East,86,7.0,9.0,92,0.00,,,-99.99,,2013-07-12 13:30:00,
2013-07-12 06:02:00,52.0,50.0,-100.00,East,86,7.0,9.0,92,0.00,,,-99.99,,2013-07-12 14:02:00,
2013-07-12 06:11:00,52.0,50.0,-100.00,East,86,7.0,9.0,92,0.00,,,-99.99,,2013-07-12 14:11:00,
2013-07-12 06:22:00,52.0,50.0,-100.00,East,86,7.0,9.0,92,0.00,,,-99.99,,2013-07-12 14:22:00,
2013-07-12 06:30:00,53.0,49.0,-100.00,ENE,59,9.0,10.0,89,0.00,,,-99.99,,2013-07-12 14:30:00,
2013-07-12 07:01:00,53.0,49.0,-100.00,ENE,59,9.0,10.0,89,0.00,,,-99.99,,2013-07-12 15:01:00,
2013-07-12 07:11:00,53.0,49.0,-100.00,ENE,59,9.0,10.0,89,0.00,,,-99.99,,2013-07-12 15:11:00,
2013-07-12 07:22:00,53.0,49.0,-100.00,ENE,59,9.0,10.0,89,0.00,,,-99.99,,2013-07-12 15:22:00,
2013-07-12 07:30:00,52.0,49.0,-100.00,ENE,71,6.0,9.0,90,0.00,,,-99.99,,2013-07-12 15:30:00,
2013-07-12 08:01:00,52.0,49.0,-100.00,ENE,71,6.0,9.0,90,0.00,,,-99.99,,2013-07-12 16:01:00,
2013-07-12 08:11:00,52.0,49.0,-100.00,ENE,71,6.0,9.0,90,0.00,,,-99.99,,2013-07-12 16:11:00,
2013-07-12 08:22:00,52.0,49.0,-100.00,ENE,71,6.0,9.0,90,0.00,,,-99.99,,2013-07-12 16:22:00,
2013-07-12 08:58:00,53.0,50.0,-100.00,ENE,62,7.0,8.0,89,0.00,,,-99.99,,2013-07-12 16:58:00,
2013-07-12 09:04:00,53.0,50.0,-100.00,ENE,62,7.0,8.0,89,0.00,,,-99.99,,2013-07-12 17:04:00,
2013-07-12 09:12:00,53.0,50.0,-100.00,ENE,62,7.0,8.0,89,0.00,,,-99.99,,2013-07-12 17:12:00,
2013-07-12 09:22:00,53.0,50.0,-100.00,ENE,62,7.0,8.0,89,0.00,,,-99.99,,2013-07-12 17:22:00,
2013-07-12 09:30:00,55.0,51.0,-100.00,NE,40,4.0,5.0,85,0.00,,,-99.99,,2013-07-12 17:30:00,
2013-07-12 09:55:00,55.0,51.0,-100.00,NE,40,4.0,5.0,85,0.00,,,-99.99,,2013-07-12 17:55:00,
2013-07-12 10:12:00,55.0,51.0,-100.00,NE,40,4.0,5.0,85,0.00,,,-99.99,,2013-07-12 18:12:00,
2013-07-12 10:23:00,55.0,51.0,-100.00,NE,40,4.0,5.0,85,0.00,,,-99.99,,2013-07-12 18:23:00,
2013-07-12 10:30:00,56.0,51.0,-100.00,NE,39,4.0,5.0,84,0.00,,,-99.99,,2013-07-12 18:30:00,
2013-07-12 10:56:00,56.0,51.0,-100.00,NE,39,4.0,5.0,84,0.00,,,-99.99,,2013-07-12 18:56:00,
2013-07-12 11:03:00,56.0,51.0,-100.00,NE,39,4.0,5.0,84,0.00,,,-99.99,,2013-07-12 19:03:00,
2013-07-12 11:13:00,56.0,51.0,-100.00,NE,39,4.0,5.0,84,0.00,,,-99.99,,2013-07-12 19:13:00,
2013-07-12 11:22:00,56.0,51.0,-100.00,NE,39,4.0,5.0,84,0.00,,,-99.99,,2013-07-12 19:22:00,
2013-07-12 11:30:00,60.0,50.0,-100.00,NNE,24,2.0,3.0,71,0.00,,,-99.99,,2013-07-12 19:30:00,
2013-07-12 12:02:00,60.0,50.0,-100.00,NNE,24,2.0,3.0,71,0.00,,,-99.99,,2013-07-12 20:02:00,
2013-07-12 12:12:00,60.0,50.0,-100.00,NNE,24,2.0,3.0,71,0.00,,,-99.99,,2013-07-12 20:12:00,
2013-07-12 12:22:00,60.0,50.0,-100.00,NNE,24,2.0,3.0,71,0.00,,,-99.99,,2013-07-12 20:22:00,
2013-07-12 14:30:00,56.0,51.0,-100.00,WSW,248,12.0,15.0,81,0.00,,,-99.99,,2013-07-12 22:30:00,
2013-07-12 15:03:00,56.0,51.0,-100.00,WSW,248,12.0,15.0,81,0.00,,,-99.99,,2013-07-12 23:03:00,
2013-07-12 15:12:00,56.0,51.0,-100.00,WSW,248,12.0,15.0,81,0.00,,,-99.99,,2013-07-12 23:12:00,
2013-07-12 15:22:00,56.0,51.0,-100.00,WSW,248,12.0,15.0,81,0.00,,,-99.99,,2013-07-12 23:22:00,
2013-07-12 15:30:00,56.0,50.0,-100.00,WSW,249,13.0,16.0,81,0.00,,,-99.99,,2013-07-12 23:30:00,
2013-07-12 16:03:00,56.0,50.0,-100.00,WSW,249,13.0,16.0,81,0.00,,,-99.99,,2013-07-13 00:03:00,
2013-07-12 16:14:00,56.0,50.0,-100.00,WSW,249,13.0,16.0,81,0.00,,,-99.99,,2013-07-13 00:14:00,
2013-07-12 16:23:00,56.0,50.0,-100.00,WSW,249,13.0,16.0,81,0.00,,,-99.99,,2013-07-13 00:23:00,
2013-07-12 16:30:00,56.0,50.0,-100.00,WSW,258,13.0,18.0,79,0.00,,,-99.99,,2013-07-13 00:30:00,
2013-07-12 17:02:00,56.0,50.0,-100.00,WSW,258,13.0,18.0,79,0.00,,,-99.99,,2013-07-13 01:02:00,
2013-07-12 17:11:00,56.0,50.0,-100.00,WSW,258,13.0,18.0,79,0.00,,,-99.99,,2013-07-13 01:11:00,
2013-07-12 17:22:00,56.0,50.0,-100.00,WSW,258,13.0,18.0,79,0.00,,,-99.99,,2013-07-13 01:22:00,
2013-07-12 17:30:00,57.0,50.0,-100.00,WSW,256,12.0,16.0,76,0.00,,,-99.99,,2013-07-13 01:30:00,
2013-07-12 17:56:00,57.0,50.0,-100.00,WSW,256,12.0,16.0,76,0.00,,,-99.99,,2013-07-13 01:56:00,
2013-07-12 18:04:00,57.0,50.0,-100.00,WSW,256,12.0,16.0,76,0.00,,,-99.99,,2013-07-13 02:04:00,
2013-07-12 18:13:00,57.0,50.0,-100.00,WSW,256,12.0,16.0,76,0.00,,,-99.99,,2013-07-13 02:13:00,
2013-07-12 18:22:00,57.0,50.0,-100.00,WSW,256,12.0,16.0,76,0.00,,,-99.99,,2013-07-13 02:22:00,
2013-07-12 18:30:00,57.0,50.0,-100.00,WSW,258,13.0,17.0,77,0.00,,,-99.99,,2013-07-13 02:30:00,
2013-07-12 19:23:00,57.0,50.0,-100.00,WSW,258,13.0,17.0,77,0.00,,,-99.99,,2013-07-13 03:23:00,
2013-07-12 19:30:00,57.0,50.0,-100.00,West,261,11.0,14.0,76,0.00,,,-99.99,,2013-07-13 03:30:00,
2013-07-12 20:01:00,57.0,50.0,-100.00,West,261,11.0,14.0,76,0.00,,,-99.99,,2013-07-13 04:01:00,
2013-07-12 20:11:00,57.0,50.0,-100.00,West,261,11.0,14.0,76,0.00,,,-99.99,,2013-07-13 04:11:00,
2013-07-12 20:22:00,57.0,50.0,-100.00,West,261,11.0,14.0,76,0.00,,,-99.99,,2013-07-13 04:22:00,
2013-07-12 20:30:00,59.0,50.0,-100.00,West,264,8.0,12.0,71,0.00,,,-99.99,,2013-07-13 04:30:00,
2013-07-12 21:01:00,59.0,50.0,-100.00,West,264,8.0,12.0,71,0.00,,,-99.99,,2013-07-13 05:01:00,
2013-07-12 21:11:00,59.0,50.0,-100.00,West,264,8.0,12.0,71,0.00,,,-99.99,,2013-07-13 05:11:00,
2013-07-12 21:21:00,59.0,50.0,-100.00,West,264,8.0,12.0,71,0.00,,,-99.99,,2013-07-13 05:21:00,
2013-07-12 21:30:00,58.0,50.0,-100.00,WSW,237,7.0,9.0,73,0.00,,,-99.99,,2013-07-13 05:30:00,
2013-07-12 21:52:00,58.0,50.0,-100.00,WSW,237,7.0,9.0,73,0.00,,,-99.99,,2013-07-13 05:52:00,
2013-07-12 22:01:00,58.0,50.0,-100.00,WSW,237,7.0,9.0,73,0.00,,,-99.99,,2013-07-13 06:01:00,
2013-07-12 22:11:00,58.0,50.0,-100.00,WSW,237,7.0,9.0,73,0.00,,,-99.99,,2013-07-13 06:11:00,
2013-07-12 22:22:00,58.0,50.0,-100.00,WSW,237,7.0,9.0,73,0.00,,,-99.99,,2013-07-13 06:22:00,
2013-07-12 22:30:00,58.0,49.0,-100.00,WSW,247,5.0,6.0,72,0.00,,,-99.99,,2013-07-13 06:30:00,
2013-07-12 22:52:00,58.0,49.0,-100.00,WSW,247,5.0,6.0,72,0.00,,,-99.99,,2013-07-13 06:52:00,
2013-07-12 23:02:00,58.0,49.0,-100.00,WSW,247,5.0,6.0,72,0.00,,,-99.99,,2013-07-13 07:02:00,
2013-07-12 23:11:00,58.0,49.0,-100.00,WSW,247,5.0,6.0,72,0.00,,,-99.99,,2013-07-13 07:11:00,
2013-07-12 23:22:00,58.0,49.0,-100.00,WSW,247,5.0,6.0,72,0.00,,,-99.99,,2013-07-13 07:22:00,
2013-07-12 23:30:00,57.0,49.0,-100.00,WNW,285,1.0,3.0,75,0.00,,,-99.99,,2013-07-13 07:30:00,
2013-07-12 23:53:00,57.0,49.0,-100.00,WNW,285,1.0,3.0,75,0.00,,,-99.99,,2013-07-13 07:53:00,